Weather Roundup
Issued by NWS

Home | Current Version | Previous Version | Graphics & Text | Print | Product List | Glossary Off
Versions: 1 2 3 4 5 6 7 8 9 10 11 12 13 14 15 16 17 18 19 20 21 22 23 24 25 26 27 28 29 30 31 32 33 34 35 36 37 38 39 40 41 42 43 44 45 46 47 48 49 50

000
NZUS93 KARX 010559
HRRWXR

CURRENT HOURLY OBSERVATIONS ACROSS
MUCH OF THE UPPER MISSISSIPPI VALLEY
NATIONAL WEATHER SERVICE LA CROSSE WI
100 AM CDT FRI AUG 01 2014


...SOUTHEAST MINNESOTA...


CITY           SKY/WX    TMP DP  RH WIND       PRES   REMARKS
ROCHESTER      NOT AVBL
ROCHESTER/MAYO NOT AVBL
WINONA         CLEAR     63  61  94 CALM      30.03R
AUSTIN         CLEAR     59  55  88 CALM      30.06R
ALBERT LEA     NOT AVBL
DODGE CENTER   PTCLDY    61  57  88 SW5       30.06S
PRESTON        NOT AVBL
OWATONNA       CLEAR     59  55  88 CALM      30.05S
FARIBAULT      CLEAR     63  55  77 CALM      30.04S
$$

...ELSEWHERE IN MINNESOTA...


CITY           SKY/WX    TMP DP  RH WIND       PRES   REMARKS
MINNEAPOLIS    NOT AVBL
INTNL FALLS    NOT AVBL
DULUTH         NOT AVBL
RED WING       CLEAR     61  59  94 CALM      30.01F
REDWOOD FALLS  NOT AVBL
MANKATO        CLEAR     64  54  68 SW5       30.04S
WORTHINGTON    CLEAR     61  57  88 SW5       30.09R
FAIRMONT       CLEAR     63  55  77 W3        30.06R
$$

...SOUTHWEST WISCONSIN...


CITY           SKY/WX    TMP DP  RH WIND       PRES   REMARKS
LA CROSSE      NOT AVBL
PRAIRIE DU CHI CLEAR     60  56  89 CALM      30.04S
BOSCOBEL       CLEAR     58  57  97 CALM      30.04S FOG
LONE ROCK      NOT AVBL
PLATTEVILLE    CLEAR     65  59  79 CALM      30.06S
FORT MC COY    CLEAR     56  55  96 CALM      30.04S
VIROQUA        FAIR      63  57  83 S5        30.05S
WIS DELLS      CLEAR     60  57  89 CALM      30.03F
$$

...ELSEWHERE IN WISCONSIN...


CITY           SKY/WX    TMP DP  RH WIND       PRES   REMARKS
MILWAUKEE      NOT AVBL
MADISON        NOT AVBL
GREEN BAY      NOT AVBL
EAU CLAIRE     NOT AVBL
BLACK RVR FLS  CLOUDY    59  59 100 CALM      30.02R
MEDFORD        PTCLDY    56  56  99 CALM      30.03S FOG
WAUSAU         NOT AVBL
WIS RAPIDS     NOT AVBL
MARSHFIELD     NOT AVBL
RICE LAKE      PTCLDY    61  59  94 CALM      30.03R FOG
$$

...NORTHEAST IOWA...


CITY           SKY/WX    TMP DP  RH WIND       PRES   REMARKS
WATERLOO       NOT AVBL
DUBUQUE        NOT AVBL
DECORAH        MOCLDY    59  55  88 CALM      30.05R
MASON CITY     NOT AVBL
CHARLES CITY   CLEAR     59  57  94 CALM      30.06S
OELWEIN        PTCLDY    63  61  94 CALM      30.07R
$$

...ELSEWHERE IN IOWA...


CITY           SKY/WX    TMP DP  RH WIND       PRES   REMARKS
DES MOINES     NOT AVBL
IOWA CITY      NOT AVBL
FORT DODGE     PTCLDY    61  55  82 CALM      30.08R
MARSHALLTOWN   NOT AVBL
CEDAR RAPIDS   NOT AVBL
$$

...NORTHERN ILLINOIS...


CITY           SKY/WX    TMP DP  RH WIND       PRES   REMARKS
CHICAGO-OHARE  CLEAR     67  57  70 SW5       30.04S
DUPAGE         NOT AVBL
CHICAGO-MIDWAY CLEAR     72  62  71 SW6       30.05R
MOLINE         NOT AVBL
ROCKFORD       NOT AVBL
STERLING       CLEAR     61  57  88 CALM      30.06S
PEORIA         NOT AVBL
$$

NOTE: "FAIR" INDICATES FEW OR NO CLOUDS BELOW 12,000 FEET WITH NO
SIGNIFICANT WEATHER AND/OR OBSTRUCTIONS TO VISIBILITY. WIND
SPEEDS ARE IN MILES-PER-HOUR.



USA.gov is the U.S. government's official web portal to all federal, state and local government web resources and services.